TimeMST,TemperatureF,Dew PointF,Humidity,Sea Level PressureIn,VisibilityMPH,Wind Direction,Wind SpeedMPH,Gust SpeedMPH,PrecipitationIn,Events,Conditions,WindDirDegrees,DateUTC
12:53 AM,33.1,18.0,54,29.63,10.0,WSW,15.0,-,N/A,,Mostly Cloudy,250,2012-12-08 07:53:00
1:53 AM,32.0,18.0,56,29.61,10.0,West,17.3,-,N/A,,Partly Cloudy,260,2012-12-08 08:53:00
2:53 AM,34.0,18.0,52,29.64,10.0,West,17.3,-,N/A,,Mostly Cloudy,260,2012-12-08 09:53:00
3:42 AM,33.8,21.2,60,29.59,5.0,WNW,19.6,42.6,0.00,Snow,Light Snow,290,2012-12-08 10:42:00
3:51 AM,35.6,17.6,48,29.58,9.0,NW,21.9,39.1,0.00,Snow,Light Snow,310,2012-12-08 10:51:00
3:53 AM,35.1,18.0,50,29.64,9.0,NW,19.6,39.1,0.00,Snow,Light Snow,310,2012-12-08 10:53:00
4:53 AM,30.9,23.0,72,29.68,10.0,WSW,11.5,-,0.00,,Overcast,240,2012-12-08 11:53:00
5:53 AM,30.9,23.0,72,29.70,10.0,WSW,11.5,17.3,N/A,,Scattered Clouds,250,2012-12-08 12:53:00
6:53 AM,30.0,19.9,66,29.72,10.0,West,13.8,-,N/A,,Partly Cloudy,260,2012-12-08 13:53:00
7:53 AM,28.0,15.1,58,29.75,10.0,West,13.8,-,N/A,,Partly Cloudy,260,2012-12-08 14:53:00
9:53 AM,27.0,16.0,63,29.81,10.0,NW,27.6,42.6,N/A,,Overcast,310,2012-12-08 16:53:00
10:38 AM,24.8,17.6,74,29.76,1.0,NNW,24.2,32.2,0.00,Snow,Light Snow,340,2012-12-08 17:38:00
10:44 AM,23.0,17.6,80,29.77,0.8,NNW,21.9,29.9,0.00,Snow,Light Snow,330,2012-12-08 17:44:00
10:53 AM,21.9,18.0,85,29.88,1.0,NNW,18.4,29.9,0.00,Snow,Light Snow,330,2012-12-08 17:53:00
11:17 AM,21.2,17.6,86,29.79,4.0,NNW,19.6,26.5,0.00,Snow,Light Snow,340,2012-12-08 18:17:00
11:23 AM,23.0,17.6,80,29.79,8.0,NNW,19.6,26.5,0.00,,Overcast,340,2012-12-08 18:23:00
11:53 AM,23.0,14.0,68,29.91,10.0,North,19.6,33.4,0.00,,Mostly Cloudy,350,2012-12-08 18:53:00
12:53 PM,21.9,15.1,75,29.96,9.0,NNW,13.8,-,0.00,Snow,Light Snow,330,2012-12-08 19:53:00
1:53 PM,21.9,14.0,72,30.00,9.0,North,13.8,-,0.00,,Overcast,350,2012-12-08 20:53:00
2:36 PM,19.4,10.4,68,29.92,9.0,NNE,17.3,-,0.00,Snow,Light Snow,20,2012-12-08 21:36:00
2:53 PM,19.0,10.9,71,30.05,9.0,North,11.5,-,0.00,Snow,Light Snow,10,2012-12-08 21:53:00
3:26 PM,19.4,10.4,68,29.98,6.0,North,13.8,-,0.00,Snow,Light Snow,360,2012-12-08 22:26:00
3:53 PM,19.0,8.1,62,30.11,9.0,North,17.3,23.0,0.00,Snow,Light Snow,10,2012-12-08 22:53:00
4:17 PM,17.6,8.6,68,30.02,9.0,NNE,16.1,-,0.00,,Mostly Cloudy,20,2012-12-08 23:17:00
4:53 PM,17.1,8.1,68,30.18,10.0,North,19.6,-,0.00,,Mostly Cloudy,10,2012-12-08 23:53:00
5:46 PM,15.8,6.8,68,30.09,9.0,NNE,9.2,-,0.00,Snow,Light Snow,20,2012-12-09 00:46:00
5:53 PM,15.8,6.8,68,30.09,9.0,NNE,13.8,18.4,N/A,Snow,Light Snow,30,2012-12-09 00:53:00
6:28 PM,15.8,6.8,68,30.11,9.0,NNE,13.8,-,0.00,Snow,Light Snow,20,2012-12-09 01:28:00
6:40 PM,15.8,6.8,68,30.11,7.0,NNE,16.1,-,0.00,Snow,Light Snow,30,2012-12-09 01:40:00
6:53 PM,15.1,8.1,74,30.25,2.5,North,12.7,-,0.00,Snow,Light Snow,10,2012-12-09 01:53:00
7:02 PM,15.8,8.6,73,30.13,3.0,NNE,8.1,-,0.00,Snow,Light Snow,20,2012-12-09 02:02:00
7:16 PM,15.8,8.6,73,30.13,2.5,NNE,8.1,-,0.00,Snow,Light Snow,20,2012-12-09 02:16:00
7:41 PM,15.8,8.6,73,30.15,3.0,NNE,11.5,-,0.01,Snow,Light Snow,30,2012-12-09 02:41:00
7:50 PM,14.0,8.6,79,30.15,1.8,NNE,6.9,17.3,0.01,Snow,Light Snow,30,2012-12-09 02:50:00
7:53 PM,14.0,9.0,80,30.30,2.0,NNE,4.6,-,0.01,Snow,Light Snow,20,2012-12-09 02:53:00
8:00 PM,14.0,8.6,79,30.16,2.0,NE,6.9,-,0.00,Snow,Light Snow,40,2012-12-09 03:00:00
8:53 PM,12.9,9.0,84,30.32,2.0,North,11.5,-,0.01,Snow,Light Snow,10,2012-12-09 03:53:00
9:12 PM,12.2,8.6,85,30.18,4.0,NNE,6.9,-,0.00,Snow,Light Snow,30,2012-12-09 04:12:00
9:53 PM,12.0,8.1,84,30.35,4.0,NNE,5.8,-,0.00,Snow,Light Snow,20,2012-12-09 04:53:00
10:53 PM,12.0,9.0,88,30.38,10.0,Calm,Calm,-,0.00,,Overcast,0,2012-12-09 05:53:00
11:53 PM,12.9,9.0,84,30.39,10.0,Calm,Calm,-,N/A,,Overcast,0,2012-12-09 06:53:00